Simultaneous Nadir Overpasses (SNOs) Predictions

Prediction of SNOs between METOP-B and TERRA Satellite Orbit:

Table of predicted SNOs for the next 14.0 days since TLE Epoch: 5/9/2020
Index Date (METOP-B) Time (METOP-B) Lat,Lon (METOP-B) SZA (METOP-B ) Date (TERRA) Time (TERRA) Lat,Lon (TERRA) SZA (TERRA ) Distance(km) Time Diff (sec)
1 05/10/2020 15:00:46 81.32, 2.28 66.49 05/10/2020 15:01:21 81.32, 2.27 66.50 0.21 35
2 05/10/2020 15:51:26 -81.32, 169.87 113.50 05/10/2020 15:50:48 -81.31, 169.82 113.53 1.28 38
3 05/13/2020 10:35:08 81.32, 68.83 65.81 05/13/2020 10:35:36 81.32, 68.75 65.81 1.36 28
4 05/13/2020 11:25:48 -81.32,-123.54 114.17 05/13/2020 11:25:03 -81.31,-123.68 114.21 2.48 45
5 05/16/2020 06:09:29 81.32, 135.36 65.16 05/16/2020 06:09:50 81.32, 135.18 65.15 2.99 21
6 05/16/2020 07:00:10 -81.32, -57.35 114.85 05/16/2020 06:59:17 -81.32, -57.22 114.87 2.29 53
7 05/19/2020 01:43:52 81.32,-158.52 64.51 05/19/2020 01:44:05 81.31,-158.43 64.53 1.55 13
8 05/19/2020 02:34:32 -81.32, 9.20 115.45 05/19/2020 02:33:32 -81.31, 9.19 115.49 0.78 60
9 05/21/2020 21:18:14 81.32, -92.03 63.94 05/21/2020 21:18:20 81.31, -92.09 63.93 1.29 6




NCC Satellite Simultaneous Nadir Overpasses (SNOs) Prediction Service
